Date String (YYYY-MM-DD hh:mm:ss) UTC,Instrument flags,absolute air pressure of the measurement (hPa),sample flow rate (lpm),inlet stack bypass flow (lpm),air temperature of the measurement (°C),ambient temperature measured by the external sensor (°C),aerosol sample conditioner tube jacket temperature (°C),OPC LED temperature (°C),internal box temperature (°C),relative humidity of the measurement (%),span deviation,mass concentration of particles derived from Lorenz-Mie calculation of OPC scattering (μg/m³),mass concentration of particles derived from Lorenz-Mie calculation of OPC scattering (μg/m³),mass concentration of particles derived from Lorenz-Mie calculation of OPC scattering (μg/m³)
DateTimeUTC,F1_M11,P_M11,Q1_M11,Q2_M11,T1_M11,T2_M11,T3_M11,T4_M11,T5_M11,U1_M11,ZSPAN_M11,X2_M11,X0_M11,X1_M11
2024-06-08 17:00:00,SystemResetWarning,0829.0,5.00,000.00,029.5,029.0,000.0,037.7,031.3,031.9,0000.0,0004.55,0017.66,0003.39
2024-06-08 17:01:00,SystemResetWarning,0829.0,4.99,000.00,029.6,029.1,000.0,037.8,031.4,032.0,0000.0,0004.59,0017.62,0003.41
2024-06-08 17:02:00,SystemResetWarning,0829.0,5.00,000.00,029.7,029.2,000.0,037.8,031.5,031.5,0000.0,0004.69,0017.85,0003.44
2024-06-08 17:03:00,SystemResetWarning,0828.9,5.00,000.00,029.8,029.4,000.0,037.8,031.6,031.7,0000.0,0004.69,0016.57,0003.47
2024-06-08 17:04:00,SystemResetWarning,0829.0,5.00,000.00,029.8,029.4,000.0,037.9,031.6,031.4,0000.0,0004.73,0016.61,0003.49
2024-06-08 17:05:00,SystemResetWarning,0828.9,4.99,000.00,029.7,028.0,000.0,038.0,030.9,032.4,0000.0,0004.78,0016.12,0003.51
2024-06-08 17:06:00,SystemResetWarning,0828.8,5.01,000.00,029.3,026.3,000.0,038.0,030.0,033.4,0000.0,0004.85,0016.45,0003.55
2024-06-08 17:07:00,SystemResetWarning,0828.8,5.02,000.00,029.1,026.3,000.0,038.0,030.0,032.8,0000.0,0004.91,0016.81,0003.59
2024-06-08 17:08:00,SystemResetWarning,0828.9,4.98,000.00,029.1,026.7,000.0,037.8,030.2,033.3,0000.0,0004.92,0016.58,0003.62
2024-06-08 17:09:00,SystemResetWarning,0829.0,5.01,000.00,029.1,027.2,000.0,037.7,030.5,033.3,0000.0,0004.90,0015.39,0003.66
2024-06-08 17:10:00,SystemResetWarning,0828.9,5.01,000.00,029.1,027.6,000.0,037.7,030.7,033.2,0000.0,0004.91,0015.25,0003.68
2024-06-08 17:11:00,SystemResetWarning,0829.0,5.00,000.00,029.2,027.9,000.0,037.7,030.8,033.3,0000.0,0004.96,0015.23,0003.71
2024-06-08 17:12:00,SystemResetWarning,0829.0,4.99,000.00,029.3,028.2,000.0,037.6,031.0,033.1,0000.0,0005.02,0015.81,0003.75
2024-06-08 17:13:00,SystemResetWarning,0828.9,4.99,000.00,029.3,028.5,000.0,037.6,031.1,032.6,0000.0,0005.03,0015.49,0003.79
2024-06-08 17:14:00,SystemResetWarning,0828.8,5.00,000.00,029.4,028.7,000.0,037.7,031.2,032.6,0000.0,0005.07,0015.00,0003.82
2024-06-08 17:15:00,SystemResetWarning,0828.8,5.00,000.00,029.5,028.9,000.0,037.7,031.3,032.2,0000.0,0005.11,0015.69,0003.86
2024-06-08 17:16:00,SystemResetWarning,0828.8,5.00,000.00,029.6,029.0,000.0,037.7,031.4,032.0,0000.0,0005.08,0015.45,0003.90
2024-06-08 17:17:00,SystemResetWarning,0828.8,5.00,000.00,029.6,029.2,000.0,037.7,031.5,032.1,0000.0,0005.03,0015.17,0003.91
2024-06-08 17:18:00,SystemResetWarning,0828.8,5.00,000.00,029.7,029.3,000.0,037.8,031.6,031.8,0000.0,0005.03,0016.36,0003.91
2024-06-08 17:19:00,SystemResetWarning,0828.8,5.00,000.00,029.8,029.3,000.0,037.8,031.6,031.9,0000.0,0005.05,0015.94,0003.92
2024-06-08 17:20:00,SystemResetWarning,0828.7,4.97,000.00,029.6,027.7,000.0,037.9,030.8,032.0,0000.0,0005.11,0016.39,0003.93
2024-06-08 17:21:00,SystemResetWarning,0828.7,5.02,000.00,029.2,026.1,000.0,037.9,030.0,032.6,0000.0,0005.12,0017.13,0003.94
2024-06-08 17:22:00,SystemResetWarning,0828.7,5.00,000.00,029.0,026.2,000.0,037.9,030.0,033.0,0000.0,0005.15,0018.38,0003.97
2024-06-08 17:23:00,SystemResetWarning,0828.7,4.99,000.00,029.0,026.6,000.0,037.8,030.2,033.3,0000.0,0005.17,0019.04,0003.98
2024-06-08 17:24:00,SystemResetWarning,0828.8,5.01,000.00,029.0,027.1,000.0,037.7,030.4,033.5,0000.0,0005.19,0020.21,0003.98
2024-06-08 17:25:00,SystemResetWarning,0828.8,5.01,000.00,029.1,027.5,000.0,037.6,030.6,033.5,0000.0,0005.21,0020.40,0003.99
2024-06-08 17:26:00,SystemResetWarning,0828.8,4.99,000.00,029.1,027.9,000.0,037.6,030.8,033.2,0000.0,0005.23,0020.72,0004.01
2024-06-08 17:27:00,SystemResetWarning,0828.8,5.00,000.00,029.2,028.2,000.0,037.6,030.9,033.1,0000.0,0005.29,0020.34,0004.04
2024-06-08 17:28:00,SystemResetWarning,0828.7,4.99,000.00,029.3,028.5,000.0,037.6,031.0,033.4,0000.0,0005.35,0020.44,0004.08
2024-06-08 17:29:00,SystemResetWarning,0828.8,5.00,000.00,029.4,028.7,000.0,037.6,031.2,033.4,0000.0,0005.40,0019.46,0004.13
2024-06-08 17:30:00,SystemResetWarning,0828.8,5.01,000.00,029.4,028.9,000.0,037.6,031.3,033.3,0000.0,0005.46,0018.57,0004.16
2024-06-08 17:31:00,SystemResetWarning,0828.8,5.00,000.00,029.5,029.0,000.0,037.6,031.3,033.1,0000.0,0005.48,0018.37,0004.21
2024-06-08 17:32:00,SystemResetWarning,0828.7,4.99,000.00,029.6,029.2,000.0,037.7,031.4,032.9,0000.0,0005.62,0017.91,0004.32
2024-06-08 17:33:00,SystemResetWarning,0828.7,4.99,000.00,029.6,029.1,000.0,037.7,031.4,032.6,0000.0,0005.79,0017.45,0004.46
2024-06-08 17:34:00,SystemResetWarning,0828.7,4.99,000.00,029.5,027.4,000.0,037.8,030.6,032.8,0000.0,0005.87,0015.96,0004.57
2024-06-08 17:35:00,SystemResetWarning,0828.7,5.02,000.00,029.2,026.9,000.0,037.8,030.3,033.9,0000.0,0006.03,0014.54,0004.69
2024-06-08 17:36:00,SystemResetWarning,0828.6,5.00,000.00,029.2,027.2,000.0,037.8,030.4,033.9,0000.0,0006.15,0015.03,0004.75
2024-06-08 17:37:00,SystemResetWarning,0828.7,5.00,000.00,029.2,027.5,000.0,037.7,030.6,034.1,0000.0,0006.33,0015.95,0004.88
2024-06-08 17:38:00,SystemResetWarning,0828.7,5.00,000.00,029.2,027.9,000.0,037.6,030.8,034.0,0000.0,0006.49,0016.14,0005.00
2024-06-08 17:39:00,SystemResetWarning,0828.7,5.01,000.00,029.3,028.2,000.0,037.6,030.9,033.1,0000.0,0006.64,0015.98,0005.10
2024-06-08 17:40:00,SystemResetWarning,0828.7,4.99,000.00,029.3,028.5,000.0,037.6,031.1,033.2,0000.0,0006.76,0016.62,0005.16
2024-06-08 17:41:00,SystemResetWarning,0828.8,4.99,000.00,029.4,028.7,000.0,037.6,031.2,032.9,0000.0,0006.88,0017.01,0005.26
2024-06-08 17:42:00,SystemResetWarning,0828.8,5.00,000.00,029.5,028.9,000.0,037.7,031.3,032.6,0000.0,0007.03,0018.08,0005.37
2024-06-08 17:43:00,SystemResetWarning,0828.8,5.00,000.00,029.6,029.1,000.0,037.7,031.4,032.5,0000.0,0007.06,0018.28,0005.39
2024-06-08 17:44:00,SystemResetWarning,0828.7,5.01,000.00,029.7,029.2,000.0,037.7,031.5,033.1,0000.0,0007.07,0017.48,0005.38
2024-06-08 17:45:00,SystemResetWarning,0828.7,5.01,000.00,029.7,029.3,000.0,037.8,031.5,032.7,0000.0,0007.09,0018.47,0005.34
2024-06-08 17:46:00,SystemResetWarning,0828.7,4.98,000.00,029.6,027.9,000.0,037.9,030.8,033.0,0000.0,0007.13,0019.42,0005.37
2024-06-08 17:47:00,SystemResetWarning,0828.6,5.01,000.00,029.2,026.0,000.0,037.9,029.9,033.6,0000.0,0007.24,0019.87,0005.50
2024-06-08 17:48:00,SystemResetWarning,0828.6,5.02,000.00,029.0,025.9,000.0,037.9,029.8,033.7,0000.0,0007.33,0019.63,0005.58
2024-06-08 17:49:00,SystemResetWarning,0828.6,4.99,000.00,028.9,026.4,000.0,037.7,030.0,033.8,0000.0,0007.41,0020.67,0005.67
2024-06-08 17:50:00,SystemResetWarning,0828.6,5.00,000.00,028.9,026.8,000.0,037.6,030.2,034.1,0001.1,0007.47,0020.64,0005.73
2024-06-08 17:51:00,SystemResetWarning,0828.6,5.01,000.00,029.0,027.3,000.0,037.5,030.5,033.8,0001.1,0007.47,0021.70,0005.77
2024-06-08 17:52:00,SystemResetWarning,0828.6,5.00,000.00,029.0,027.7,000.0,037.5,030.7,033.9,0000.7,0007.47,0022.61,0005.78
2024-06-08 17:53:00,SystemResetWarning,0828.6,5.00,000.00,029.1,028.0,000.0,037.5,030.8,033.4,0001.1,0007.35,0022.56,0005.71
2024-06-08 17:54:00,SystemResetWarning,0828.6,5.00,000.00,029.2,028.3,000.0,037.5,030.9,033.0,0001.1,0007.31,0022.57,0005.65
2024-06-08 17:55:00,SystemResetWarning,0828.7,5.00,000.00,029.2,028.5,000.0,037.5,031.0,033.5,0001.0,0007.26,0023.20,0005.63
2024-06-08 17:56:00,SystemResetWarning,0828.6,5.00,000.00,029.3,028.7,000.0,037.5,031.1,032.3,0000.4,0007.26,0023.61,0005.60
2024-06-08 17:57:00,SystemResetWarning,0828.6,5.01,000.00,029.4,028.9,000.0,037.6,031.2,031.7,-000.1,0007.21,0024.16,0005.54
2024-06-08 17:58:00,SystemResetWarning,0828.6,4.99,000.00,029.5,029.0,000.0,037.6,031.3,032.0,0000.7,0007.07,0024.22,0005.42
2024-06-08 17:59:00,SystemResetWarning,0828.6,5.00,000.00,029.5,029.2,000.0,037.6,031.4,031.9,0000.7,0006.91,0024.15,0005.31
